Weather History for Squamish, BC

Change the Weather History Date:

Tuesday, March 26, 2013

  Actual Average Record
Temperature  
Mean Temperature 46 °F -  
Max Temperature 59 °F - - ()
Min Temperature 32 °F - - ()
Degree Days  
Heating Degree Days 20    
Moisture  
Dew Point 35 °F    
Average Humidity 72    
Maximum Humidity 97    
Minimum Humidity 31    
Precipitation  
Precipitation 0.00 in - - ()
Sea Level Pressure  
Sea Level Pressure 30.00 in    
Wind  
Wind Speed 2 mph ()    
Max Wind Speed 7 mph    
Max Gust Speed -    
T = Trace of Precipitation, MM = Missing Value Source: Averaged Metar Reports

Daily Weather History Graph

Daily Weather History Graph

Search for Another Location

Airport:

Trip Planner

Search our weather history database for the weather conditions in past years. The results will help you decide how hot, cold, wet, or windy it might be!

Date:

Astronomy

Mar. 26, 2013 Rise Set
Actual Time 7:01 AM PDT 7:35 PM PDT
Civil Twilight 6:29 AM PDT 8:08 PM PDT
Nautical Twilight 5:50 AM PDT 8:46 PM PDT
Astronomical Twilight 5:10 AM PDT 9:27 PM PDT
Moon 7:20 PM PDT (3/26) 6:22 AM PDT (3/26)
Length of Visible Light 13h 38m
Length of Day
12h 34m
Full, 100% of the Moon is Illuminated
Mar 26
Full
Mar 27
Full
Apr 2
Last Quarter
Apr 10
New
Apr 18
First Quarter

Hourly Weather History & Observations

Time (PDT) Temp. Windchill Dew Point Humidity Pressure Visibility Wind Dir Wind Speed Gust Speed Precip Events Conditions
12:00 AM 36.9 °F - 34.5 °F 91% 30.01 in - NE 2.3 mph - N/A   Unknown
1:00 AM 35.8 °F - 34.2 °F 94% 30.02 in - NNE 2.3 mph - N/A   Unknown
2:00 AM 35 °F - 34 °F 92% 30.02 in - NE 2.3 mph - -  
2:00 AM 34.9 °F - 33.6 °F 95% 30.02 in - NE 2.3 mph - N/A   Unknown
3:00 AM 34.0 °F - 33.1 °F 96% 30.01 in - North 1.2 mph - N/A   Unknown
4:00 AM 34.0 °F - 32.9 °F 96% 30.01 in - NNE 1.2 mph - N/A   Unknown
5:00 AM 34 °F - 33 °F 93% 30.01 in - NNE 2.3 mph - -  
5:00 AM 33.6 °F - 31.3 °F 91% 30.01 in - NNE 2.3 mph - N/A   Unknown
6:00 AM 33.6 °F - 32.9 °F 97% 30.02 in - NE 1.2 mph - N/A   Unknown
7:00 AM 33.8 °F - 33.1 °F 97% 30.03 in - NE 2.3 mph - N/A   Unknown
8:00 AM 36 °F - 35 °F 92% 30.03 in - NNE 1.2 mph - -  
8:00 AM 35.6 °F - 34.5 °F 96% 30.03 in - NNE 1.2 mph - N/A   Unknown
9:00 AM 40.1 °F 38.0 °F 35.6 °F 84% 30.03 in - NNW 3.5 mph - N/A   Unknown
10:00 AM 44.2 °F 42.7 °F 35.8 °F 72% 30.02 in - NW 3.5 mph - N/A   Unknown
11:00 AM 50 °F - 35 °F 44% 30.01 in - NNW 2.3 mph - -  
11:00 AM 49.6 °F - 34.7 °F 56% 30.01 in - NNW 2.3 mph - N/A   Unknown
12:00 PM 53.4 °F - 32.9 °F 46% 30.00 in - NW 3.5 mph - N/A   Unknown
1:00 PM 57.6 °F - 34.5 °F 42% 29.99 in - SSW 1.2 mph - N/A   Unknown
2:00 PM 55 °F - 33 °F 31% 29.99 in - SSE 6.9 mph - -  
2:00 PM 55.4 °F - 33.3 °F 43% 29.99 in - SSE 6.9 mph - N/A   Unknown
3:00 PM 56.5 °F - 34.0 °F 43% 29.99 in - SSE 6.9 mph - N/A   Unknown
4:00 PM 59.0 °F - 34.3 °F 40% 29.97 in - SE 6.9 mph - N/A   Unknown
5:00 PM 55 °F - 35 °F 35% 29.97 in - SSE 5.8 mph - -  
5:00 PM 55.0 °F - 35.2 °F 47% 29.97 in - SSE 5.8 mph - N/A   Unknown
6:00 PM 54.5 °F - 36.3 °F 50% 29.97 in - SSE 4.6 mph - N/A   Unknown
7:00 PM 52.5 °F - 36.5 °F 54% 29.97 in - SSE 3.5 mph - N/A   Unknown
8:00 PM 47 °F - 39 °F 66% 29.97 in - East 1.2 mph - -  
8:00 PM 46.8 °F - 39.2 °F 75% 29.97 in - East 1.2 mph - N/A   Unknown
9:00 PM 43.3 °F - 39.4 °F 86% 29.98 in - NE 1.2 mph - N/A   Unknown
10:00 PM 41.5 °F - 38.7 °F 89% 29.99 in - NE 2.3 mph - N/A   Unknown
11:00 PM 40 °F - 38 °F 88% 30.00 in - NNE 3.5 mph - -  
11:00 PM 40.3 °F 38.2 °F 37.6 °F 90% 30.00 in - NNE 3.5 mph - N/A   Unknown